This demonstration page uses our WeatherBlox Daily Observations layout. Learn more.

Left ArrowRight Arrow

30.21309, -93.2044

Hourly Observations for July 2, 2021

Temp ( °F °C ) Dew Point ( °F °C ) Humidity (%) Winds ( mph kmh ) Pressure ( in mb ) Visibility ( mi km ) Precip ( " mm )
12:15 am 00:15 Partly Cloudy 80 26.9 74 23.5 82 82 SW 5 7 29.96 1015 10 16 0.00 0.00
12:35 am 00:35 Clear 80 26.9 74 23.4 81 81 W 5 7 29.96 1015 10 16 0.00 0.00
12:55 am 00:55 Partly Cloudy 81 27 74 23.4 81 81 SW 5 7 29.95 1014 10 16 0.00 0.00
1:15 am 01:15 Clear 80 26.9 74 23.5 82 82 SSW 3 6 29.95 1014 10 16 0.00 0.00
1:35 am 01:35 Clear 80 26.9 74 23.5 82 82 Calm 29.95 1014 10 16 0.00 0.00
1:55 am 01:55 Clear 80 26.6 74 23.6 84 84 WSW 3 6 29.94 1014 10 16 0.00 0.00
2:15 am 02:15 Clear 80 26.9 74 23.5 82 82 WSW 3 6 29.94 1014 10 16 0.00 0.00
2:35 am 02:35 Clear 80 26.9 74 23.4 81 81 SSW 5 7 29.94 1014 10 16 0.00 0.00
2:55 am 02:55 Clear 77 24.8 74 23.4 92 92 S 3 6 29.93 1014 10 16 0.00 0.00
3:15 am 03:15 Clear 79 26.1 74 23.4 85 85 SSW 5 7 29.92 1013 10 16 0.00 0.00
3:35 am 03:35 Clear 76 24.6 74 23.3 93 93 S 3 6 29.92 1013 10 16 0.00 0.00
3:55 am 03:55 Clear 76 24.5 74 23.3 93 93 SSW 5 7 29.92 1013 10 16 0.00 0.00
4:15 am 04:15 Clear 76 24.5 74 23.1 92 92 Calm 29.92 1013 10 16 0.00 0.00
4:35 am 04:35 Clear 79 26 74 23.4 86 86 Calm 29.93 1014 10 16 0.00 0.00
4:55 am 04:55 Clear 77 25 74 23.3 90 90 Calm 29.93 1014 10 16 0.00 0.00
5:15 am 05:15 Clear 76 24.7 74 23.3 92 92 Calm 29.94 1014 10 16 0.00 0.00
5:35 am 05:35 Clear 80 26.4 74 23.2 83 83 W 3 6 29.95 1014 10 16 0.00 0.00
6:00 am 06:00 Mostly Clear 81 27 73 23 79 79 SW 6 9 29.94 1014 10 16 0.00 0.00
6:54 am 06:54 Mostly Sunny 79 26 73 23 84 84 N 5 7 29.96 1015 10 16 0.00 0.00
7:50 am 07:50 Partly Cloudy 81 27 75 24 84 84 WNW 5 7 29.97 1015 10 16 0.00 0.00
8:55 am 08:55 Mostly Cloudy 84 29 75 24 74 74 WNW 9 15 29.97 1015 10 16 0.00 0.00
9:45 am 09:45 Mostly Cloudy 84 29 75 24 74 74 NW 7 11 29.98 1015 10 16 0.00 0.00
10:47 am 10:47 Mostly Cloudy 84 29 75 24 74 74 NNW 6 9 29.99 1016 10 16 0.00 0.00
11:50 am 11:50 Mostly Cloudy 86 30 75 24 70 70 NW 8 13 29.98 1015 10 16 0.00 0.00
12:50 pm 12:50 Partly Cloudy 86 30 73 23 66 66 NNW 7 11 29.96 1015 10 16 0.00 0.00
1:52 pm 13:52 Partly Cloudy 86 30 73 23 66 66 N 6 9 29.93 1014 10 16 0.00 0.00
2:50 pm 14:50 Partly Cloudy 88 31 73 23 62 62 NNW 5 7 29.92 1013 10 16 0.00 0.00
3:50 pm 15:50 Partly Cloudy 88 31 75 24 66 66 NW 5 7 29.90 1013 10 16 0.00 0.00
4:50 pm 16:50 Mostly Cloudy 88 31 73 23 62 62 WNW 7 11 29.89 1012 10 16 0.00 0.00
5:50 pm 17:50 Mostly Cloudy 86 30 75 24 70 70 N 5 7 29.91 1013 10 16 0.00 0.00
6:55 pm 18:55 Mostly Cloudy with Nearby Thunderstorms 81 27 75 24 84 84 N 7 11 29.91 1013 10 16 0.00 0.00
7:50 pm 19:50 Mostly Cloudy with Nearby Thunderstorms 81 27 73 23 79 79 Calm 29.92 1013 10 16 0.00 0.00
8:50 pm 20:50 Mostly Clear 77 25 73 23 89 89 SSE 5 7 29.92 1013 10 16 0.00 0.00
9:50 pm 21:50 Partly Cloudy 75 24 73 23 94 94 Calm 29.93 1014 10 16 0.00 0.00
10:15 pm 22:15 Mostly Cloudy 76 24.7 73 23 90 90 Calm 29.94 1014 10 16 0.00 0.00
10:35 pm 22:35 Partly Cloudy 76 24.7 73 23 90 90 Calm 29.94 1014 10 16 0.00 0.00
10:55 pm 22:55 Partly Cloudy 77 24.9 73 23 89 89 Calm 29.95 1014 10 16 0.00 0.00
11:15 pm 23:15 Partly Cloudy 76 24.7 74 23.3 92 92 Calm 29.95 1014 10 16 0.00 0.00
11:35 pm 23:35 Clear 76 24.5 74 23.1 92 92 Calm 29.95 1014 10 16 0.00 0.00
11:55 pm 23:55 Partly Cloudy 76 24.5 74 23.1 92 92 Calm 29.95 1014 10 16 0.00 0.00

Powered by AerisWeather